Location: Le Gr�zie
(43.6000°N, 13.5000°E)
Time: 10:51:28
(UTC+00:00)

USA 32 - Pass Details

Date: 09 April 2020
Orbit: 777 x 783 km, 85.0° (Epoch: 03 June)

Event Time Altitude Azimuth Distance (km) Brightness Sun altitude
Rises 20:19:08 0° 356° (N) 3,271 7.9 -25.9°
Reaches altitude 10° 20:21:31 10° 358° (N) 2,339 7.0 -26.2°
Enters shadow 20:26:24 73° 43° (NE) 815 4.0 -26.8°
